Waarnemingen

Advertentie
Mijn weer
St-Sauveur, Frankrijk (7300): temperatuur & dauwpunt: 17.01.2018 04:00:00 - 23.01.2018 04:00:00 (CET)St-Sauveur, Frankrijk (7300): windsnelheid & windstoten: 17.01.2018 04:00:00 - 23.01.2018 04:00:00 (CET)St-Sauveur, Frankrijk (7300): windrichting: 17.01.2018 04:00:00 - 23.01.2018 04:00:00 (CET)St-Sauveur, Frankrijk (7300): luchtdruk: 17.01.2018 04:00:00 - 23.01.2018 04:00:00 (CET)St-Sauveur, Frankrijk (7300): zicht: 17.01.2018 04:00:00 - 23.01.2018 04:00:00 (CET)St-Sauveur, Frankrijk (7300): neerslag: 17.01.2018 04:00:00 - 23.01.2018 04:00:00 (CET)
Datum & Tijd tt [°C] td [°C] ff [km/u] ff [kn] fx [km/u] fx [kn] dd ppp [hPa] vv [km] rr [mm]
23.01.2018 04:00:00 10,7 10,4 20 11 29 16 Z 1025,1 17 0,0
23.01.2018 03:00:00 10,3 10,0 18 10 25 13 Z 1025,4 - 0,0
23.01.2018 02:00:00 10,0 9,7 15 8 23 12 Z 1025,8 - 0,0
23.01.2018 01:00:00 9,8 9,5 14 8 20 11 ZZW 1026,3 20 0,2
23.01.2018 00:00:00 8,8 8,2 11 6 15 8 ZZW 1026,2 - 0,0
22.01.2018 23:00:00 9,2 8,7 6 3 13 7 WZW 1026,3 - 0,0
22.01.2018 22:00:00 9,1 8,5 6 3 20 11 W 1026,2 - 0,0
22.01.2018 21:00:00 9,8 9,2 9 5 19 10 W 1026,2 - 0,0
22.01.2018 20:00:00 9,6 8,8 10 5 23 13 W 1025,7 - 0,0
22.01.2018 19:00:00 9,8 8,9 14 8 24 13 WNW 1025,1 - 0,0
22.01.2018 18:00:00 10,3 9,1 14 8 32 17 WNW 1024,5 - 0,0
22.01.2018 17:00:00 11,1 9,2 16 9 42 23 WNW 1023,7 - 0,0
22.01.2018 16:00:00 11,9 9,3 23 13 50 27 NW 1023,1 15 0,0
22.01.2018 15:00:00 12,2 8,8 27 15 51 28 NW 1022,2 - 0,0
22.01.2018 14:00:00 12,5 9,0 28 15 59 32 WNW 1021,7 - 0,0
22.01.2018 13:00:00 12,6 8,9 36 19 67 36 WNW 1021,2 15 0,0
22.01.2018 12:00:00 12,2 9,2 32 17 75 40 WNW 1020,5 - 0,0
22.01.2018 11:00:00 12,4 10,8 27 15 64 35 WNW 1019,4 - 0,0
22.01.2018 10:00:00 12,2 11,4 28 15 63 34 W 1018,4 - 0,0
22.01.2018 09:00:00 12,1 11,8 27 15 62 34 W 1018,0 - 0,2
22.01.2018 08:00:00 11,9 11,6 30 16 59 32 WZW 1018,0 - 0,0
22.01.2018 07:00:00 11,8 11,2 24 13 50 27 WZW 1018,6 - 0,0
22.01.2018 06:00:00 11,7 11,1 23 12 51 27 W 1019,2 - 0,0
22.01.2018 05:00:00 11,7 11,4 25 14 52 28 W 1019,9 - 0,0
22.01.2018 04:00:00 11,8 11,3 25 13 50 27 W 1020,0 - 0,0
22.01.2018 03:00:00 11,8 11,3 24 13 50 27 W 1020,2 - 0,0
22.01.2018 02:00:00 11,7 11,2 24 13 49 26 W 1020,4 - 0,0
22.01.2018 01:00:00 11,7 11,2 22 12 51 28 W 1020,9 8 0,0
22.01.2018 00:00:00 11,9 11,1 23 12 47 26 W 1021,1 - 0,0
21.01.2018 23:00:00 11,7 11,1 21 11 40 22 W 1021,0 - 0,0
21.01.2018 22:00:00 11,7 11,1 21 12 50 27 W 1021,1 - 0,0
21.01.2018 21:00:00 11,7 11,1 20 11 49 26 W 1021,2 - 0,0
21.01.2018 20:00:00 11,5 10,9 21 11 48 26 W 1021,2 - 0,0
21.01.2018 19:00:00 11,4 10,8 22 12 51 28 W 1021,2 - 0,2
21.01.2018 18:00:00 11,5 10,7 25 14 56 31 W 1021,3 - 0,0
21.01.2018 17:00:00 11,6 11,3 22 12 48 26 W 1021,3 - 0,0
21.01.2018 16:00:00 11,5 11,2 21 12 47 25 W 1021,2 2,0 0,0
21.01.2018 15:00:00 11,8 11,6 22 12 52 28 W 1021,3 - 0,0
21.01.2018 14:00:00 11,7 11,5 22 12 52 28 W 1021,5 - 0,0
21.01.2018 13:00:00 11,7 11,5 22 12 52 28 W 1021,9 - 0,0
21.01.2018 12:00:00 11,6 11,4 18 10 51 27 W 1022,0 - 0,0
21.01.2018 11:00:00 11,5 11,3 20 11 43 23 WNW 1021,7 - 0,2
21.01.2018 10:00:00 11,6 11,4 27 15 48 26 WNW 1021,1 - 0,0
21.01.2018 09:00:00 11,4 11,2 26 14 59 32 WNW 1020,8 - 0,0
21.01.2018 08:00:00 11,5 11,3 27 15 60 33 WNW 1020,3 - 0,2
21.01.2018 07:00:00 11,7 11,5 23 13 50 27 WNW 1019,3 1,0 0,0
21.01.2018 06:00:00 11,7 11,5 25 14 50 27 WNW 1019,3 - 0,0
21.01.2018 05:00:00 11,6 11,4 23 12 50 27 WNW 1018,9 - 0,2
21.01.2018 04:00:00 11,7 11,5 24 13 50 27 WNW 1018,8 - 0,2
21.01.2018 03:00:00 11,6 11,4 23 12 51 27 WNW 1018,4 - 0,0
21.01.2018 02:00:00 11,6 11,3 20 11 50 27 WNW 1018,2 - 0,2
21.01.2018 01:00:00 11,6 11,3 25 14 58 32 WNW 1017,8 3,0 0,0
21.01.2018 00:00:00 11,6 11,3 35 19 61 33 WNW 1017,0 - 0,2
20.01.2018 23:00:00 11,8 11,5 32 17 60 32 WNW 1016,3 - 0,2
20.01.2018 22:00:00 11,8 11,5 29 16 61 33 WNW 1015,6 - 0,0
20.01.2018 21:00:00 11,9 11,6 31 17 63 34 WNW 1014,8 - 0,0
20.01.2018 20:00:00 11,8 11,5 30 16 61 33 WNW 1014,1 - 0,0
20.01.2018 19:00:00 11,9 11,6 32 18 67 36 WNW 1013,5 - 0,2
20.01.2018 18:00:00 11,8 11,5 29 16 64 35 WNW 1012,8 - 0,2
20.01.2018 17:00:00 12,0 11,7 31 17 63 34 WNW 1012,2 - 0,0
20.01.2018 16:00:00 12,0 11,7 28 15 63 34 WNW 1011,6 - 0,0
20.01.2018 15:00:00 12,1 11,8 31 17 77 41 W 1010,9 - 0,2
20.01.2018 14:00:00 12,1 11,8 31 17 68 37 WNW 1011,1 - 0,0
20.01.2018 13:00:00 12,2 11,9 32 17 69 38 W 1010,8 - 0,4
20.01.2018 12:00:00 12,2 11,9 32 18 68 37 W 1010,7 - 1,2
20.01.2018 11:00:00 12,1 11,8 31 17 76 41 W 1010,1 - 0,2
20.01.2018 10:00:00 12,1 11,6 36 19 81 44 W 1009,5 - 0,2
20.01.2018 09:00:00 11,9 11,4 32 18 74 40 W 1009,0 - 1,2
20.01.2018 08:00:00 11,5 10,9 34 18 86 47 W 1009,1 - 0,6
20.01.2018 07:00:00 11,1 10,5 36 19 76 41 W 1009,6 8 2,8
20.01.2018 06:00:00 10,4 9,9 38 21 73 40 ZW 1011,0 - 3,2
20.01.2018 05:00:00 10,0 9,2 26 14 54 29 WZW 1013,5 - 3,1
20.01.2018 04:00:00 9,8 8,6 26 14 58 32 WZW 1015,5 10 1,0
20.01.2018 03:00:00 10,0 8,6 21 12 50 27 WZW 1017,1 - 0,2
20.01.2018 02:00:00 9,2 8,1 23 12 80 43 WNW 1018,2 - 2,6
20.01.2018 01:00:00 9,7 7,5 22 12 46 25 WZW 1019,4 20 0,0
20.01.2018 00:00:00 9,7 6,6 16 9 36 20 W 1020,0 - 0,0
19.01.2018 23:00:00 9,0 6,3 18 10 39 21 W 1020,3 - 0,0
19.01.2018 22:00:00 7,2 5,7 14 8 25 14 WNW 1020,8 - 0,0
19.01.2018 21:00:00 7,8 5,8 19 11 38 21 NW 1020,6 - 0,4
19.01.2018 20:00:00 8,2 5,1 19 10 55 30 WNW 1020,2 - 0,0
19.01.2018 19:00:00 8,0 4,9 15 8 33 18 WNW 1019,9 25 0,0
19.01.2018 18:00:00 8,3 3,9 21 11 46 25 WNW 1019,6 - 0,0
19.01.2018 17:00:00 8,9 4,9 17 9 37 20 WNW 1019,7 - 0,0
19.01.2018 16:00:00 9,9 4,1 21 12 37 20 NW 1019,0 - 0,0
19.01.2018 15:00:00 10,1 4,7 22 12 39 21 WNW 1018,6 - 0,0
19.01.2018 14:00:00 10,3 5,9 19 11 34 19 NW 1018,8 - 0,0
19.01.2018 13:00:00 10,1 7,3 13 7 29 16 NW 1019,2 25 0,0
19.01.2018 12:00:00 8,9 7,3 17 9 47 25 NW 1019,0 - 0,4
19.01.2018 11:00:00 10,7 8,1 16 9 36 20 W 1018,3 - 0,0
19.01.2018 10:00:00 8,9 7,0 16 8 31 17 WNW 1018,2 15 0,0
19.01.2018 09:00:00 8,1 5,9 23 12 52 28 NW 1017,9 - 0,0
19.01.2018 08:00:00 8,1 6,6 14 8 29 16 W 1017,6 - 0,0
19.01.2018 07:00:00 7,8 6,1 18 10 36 19 WNW 1017,3 20 0,4
19.01.2018 06:00:00 7,2 6,0 13 7 18 10 WNW 1017,3 - 0,0
19.01.2018 05:00:00 7,9 6,4 12 7 31 17 WNW 1017,4 - 0,2
19.01.2018 04:00:00 8,2 6,5 11 6 22 12 WNW 1017,3 15 0,0
19.01.2018 03:00:00 8,5 5,8 18 10 41 22 NW 1017,5 - 0,2
19.01.2018 02:00:00 8,7 6,8 17 9 32 18 NW 1017,3 - 0,2
19.01.2018 01:00:00 9,8 8,2 17 9 36 19 WNW 1017,2 10 0,0
19.01.2018 00:00:00 10,1 8,4 18 10 32 17 NW 1016,8 - 0,0
18.01.2018 23:00:00 10,0 7,1 19 10 37 20 WNW 1016,9 - 0,0
18.01.2018 22:00:00 9,9 7,3 22 12 42 23 WNW 1016,6 18 0,0
18.01.2018 21:00:00 9,6 7,9 21 11 39 21 WNW 1016,5 - 0,0
18.01.2018 20:00:00 10,7 9,5 22 12 42 23 WNW 1015,9 - 0,0
18.01.2018 19:00:00 11,1 10,3 24 13 45 25 WNW 1015,3 10 0,0
18.01.2018 18:00:00 10,9 10,3 19 11 48 26 W 1014,7 - 0,2
18.01.2018 17:00:00 11,2 10,7 22 12 55 30 W 1014,7 - 0,0
18.01.2018 16:00:00 11,9 11,6 24 13 56 30 W 1014,3 6 0,2
18.01.2018 15:00:00 11,7 11,4 25 13 54 29 W 1014,5 - 0,6
18.01.2018 14:00:00 11,6 11,3 28 15 58 31 W 1014,9 - 0,2
18.01.2018 13:00:00 11,5 11,0 26 14 58 31 W 1015,5 3,0 0,2
18.01.2018 12:00:00 11,6 10,8 27 15 61 33 W 1016,0 - 0,2
18.01.2018 11:00:00 11,6 10,7 30 16 62 33 W 1016,0 - 0,0
18.01.2018 10:00:00 11,6 10,0 27 14 55 30 W 1016,1 - 0,0
18.01.2018 09:00:00 11,3 10,0 28 15 61 33 W 1016,0 - 0,0
18.01.2018 08:00:00 11,1 10,2 27 15 62 34 W 1016,1 - 0,0
18.01.2018 07:00:00 10,9 9,8 29 16 65 35 WZW 1016,2 20 0,0
18.01.2018 06:00:00 10,7 9,9 29 15 64 34 W 1016,9 - 0,4
18.01.2018 05:00:00 10,8 9,4 31 17 66 36 W 1017,4 - 0,2
18.01.2018 04:00:00 10,8 9,1 28 15 60 33 W 1017,9 10 0,0
18.01.2018 03:00:00 10,5 9,1 30 16 63 34 W 1018,4 - 0,0
18.01.2018 02:00:00 11,0 8,0 32 17 61 33 W 1018,9 - 0,0
18.01.2018 01:00:00 10,9 7,0 24 13 55 30 W 1019,9 18 0,0
18.01.2018 00:00:00 10,3 8,1 25 14 56 30 W 1020,4 - 0,0
17.01.2018 23:00:00 10,6 6,9 24 13 58 31 W 1020,8 - 0,0
17.01.2018 22:00:00 10,5 7,4 24 13 49 26 W 1021,4 18 0,0
17.01.2018 21:00:00 10,0 6,2 21 11 45 24 W 1021,7 - 0,0
17.01.2018 20:00:00 9,9 6,4 20 11 44 24 W 1022,0 - 0,0
17.01.2018 19:00:00 8,9 6,7 17 9 47 26 W 1022,4 - 0,2
17.01.2018 18:00:00 9,0 5,6 20 11 44 24 W 1022,7 - 0,0
17.01.2018 17:00:00 9,3 6,2 18 10 48 26 W 1023,1 - 0,0
17.01.2018 16:00:00 9,7 6,0 27 15 60 33 WNW 1023,1 20 0,0
17.01.2018 15:00:00 10,2 6,3 25 13 57 31 WNW 1022,8 - 0,6
17.01.2018 14:00:00 10,9 5,0 23 13 49 26 WNW 1022,7 - 0,0
17.01.2018 13:00:00 10,5 5,3 20 11 45 25 WNW 1023,2 - 0,0
17.01.2018 12:00:00 10,0 4,4 23 12 48 26 NW 1023,2 - 0,0
17.01.2018 11:00:00 7,9 5,0 29 15 57 31 WNW 1022,6 - 0,0
17.01.2018 10:00:00 7,9 4,1 30 16 75 41 NW 1021,7 18 0,2
17.01.2018 09:00:00 7,8 3,1 34 19 85 46 NW 1020,6 - 0,0
17.01.2018 08:00:00 8,9 3,3 36 19 63 34 NW 1019,3 - 0,0
17.01.2018 07:00:00 7,5 4,3 33 18 77 41 WNW 1018,5 20 0,2
17.01.2018 06:00:00 8,4 3,4 42 23 85 46 WNW 1017,3 - 0,0
17.01.2018 05:00:00 8,4 3,8 37 20 74 40 WNW 1016,4 - 0,2
17.01.2018 04:00:00 6,5 4,8 42 23 91 49 NW 1015,9 10 1,2

tt = temperatuur
td = dauwpunt
ff = windsnelheid
fx = windstoten
dd = windrichting
ppp = luchtdruk
vv = zicht
rr = neerslag

Weerstations in de omgeving